Custer, SD

2:04 AM MDT on September 21, 2017 (GMT -0600)
Custer County

Weather History for KCUT - September, 2011

Change the Weather History Date:

Tuesday, September 6, 2011

  Actual Average Record
Temperature  
Mean Temperature 61 °F 59 °F  
Max Temperature 76 °F 72 °F 94 °F (1978)
Min Temperature 46 °F 45 °F 20 °F (1956)
Degree Days  
Heating Degree Days 4 7  
Month to date heating degree days 40 38  
Since 1 July heating degree days 110 192  
Cooling Degree Days 0 1  
Month to date cooling degree days 1 6  
Year to date cooling degree days 267 172  
Growing Degree Days 10 (Base 50)    
Moisture  
Dew Point 36 °F    
Average Humidity 44    
Maximum Humidity 66    
Minimum Humidity 21    
Precipitation  
Precipitation 0.00 in 0.06 in 1.27 in (1982)
Month to date precipitation 0.00 0.40  
Year to date precipitation 18.75 15.32  
Sea Level Pressure  
Sea Level Pressure 30.05 in    
Wind  
Wind Speed 7 mph (NNE)    
Max Wind Speed 16 mph    
Max Gust Speed 24 mph    
Visibility 10 miles    
Events      
T = Trace of Precipitation, MM = Missing Value Source: NWS Daily Summary

Daily Weather History Graph

Daily Weather History Graph

Search for Another Location

Airport or City:

Trip Planner

Search our weather history database for the weather conditions in past years. The results will help you decide how hot, cold, wet, or windy it might be!

Date:

Astronomy

Sep. 06, 2011 Rise Set
Actual Time 6:23 AM MDT 7:21 PM MDT
Civil Twilight 5:54 AM MDT 7:50 PM MDT
Nautical Twilight 5:19 AM MDT 8:25 PM MDT
Astronomical Twilight 4:42 AM MDT 9:02 PM MDT
Moon 4:06 PM MDT (9/6) 12:31 AM MDT (9/6)
Length of Visible Light 13h 56m
Length of Day
12h 58m
Waxing Gibbous, 71% of the Moon is Illuminated
Sep 6
Waxing Gibbous
Sep 12
Full
Sep 20
Last Quarter
Sep 27
New
Oct 3
First Quarter

Hourly Weather History & Observations

Time (MDT) Temp. Windchill Dew Point Humidity Pressure Visibility Wind Dir Wind Speed Gust Speed Precip Events Conditions
12:53 AM 48.0 °F - 37.0 °F 66% 29.97 in 10.0 mi NNW 5.8 mph - N/A   Clear
1:53 AM 46.0 °F 43.9 °F 36.0 °F 68% 29.97 in 10.0 mi NW 4.6 mph - N/A   Clear
2:53 AM 46.9 °F - 36.0 °F 66% 29.96 in 10.0 mi Calm Calm - N/A   Clear
3:53 AM 48.0 °F - 35.1 °F 61% 29.96 in 10.0 mi NW 5.8 mph - N/A   Clear
4:53 AM 50.0 °F - 35.1 °F 57% 29.96 in 10.0 mi NW 3.5 mph - N/A   Clear
5:53 AM 51.1 °F - 34.0 °F 52% 29.98 in 10.0 mi NNW 3.5 mph - N/A   Clear
6:53 AM 53.1 °F - 36.0 °F 52% 30.00 in 10.0 mi NNW 4.6 mph - N/A   Clear
7:53 AM 55.9 °F - 39.9 °F 55% 30.02 in 10.0 mi NNW 4.6 mph - N/A   Partly Cloudy
8:53 AM 63.0 °F - 37.9 °F 40% 30.02 in 10.0 mi Calm Calm - N/A   Partly Cloudy
9:53 AM 62.1 °F - 44.1 °F 52% 30.07 in 10.0 mi South 3.5 mph - N/A   Mostly Cloudy
10:53 AM 70.0 °F - 37.9 °F 31% 30.05 in 10.0 mi NNE 8.1 mph - N/A   Clear
11:53 AM 73.9 °F - 34.0 °F 23% 30.05 in 10.0 mi East 13.8 mph - N/A   Clear
12:53 PM 75.0 °F - 32.0 °F 21% 30.05 in 10.0 mi East 11.5 mph 24.2 mph N/A   Clear
2:53 PM 75.9 °F - 34.0 °F 22% 30.06 in 10.0 mi East 15.0 mph - N/A   Clear
3:53 PM 75.0 °F - 34.0 °F 22% 30.06 in 10.0 mi ENE 12.7 mph 19.6 mph N/A   Clear
4:53 PM 73.9 °F - 36.0 °F 25% 30.08 in 10.0 mi East 10.4 mph - N/A   Partly Cloudy
5:53 PM 71.1 °F - 36.0 °F 28% 30.10 in 10.0 mi ENE 12.7 mph - N/A   Clear
8:53 PM 62.1 °F - 37.0 °F 39% 30.15 in 10.0 mi NE 4.6 mph - N/A   Clear
9:53 PM 57.0 °F - 36.0 °F 45% 30.17 in 10.0 mi North 4.6 mph - N/A   Clear
10:53 PM 55.9 °F - 35.1 °F 45% 30.16 in 10.0 mi NNE 4.6 mph - N/A   Clear
11:53 PM 55.0 °F - 34.0 °F 45% 30.16 in 10.0 mi Calm Calm - N/A   Clear